Flight Information

DEPARTURE
SAN JOSE, CA
Elevation:
62
Runways:
12L/30R - 11000x150 - CONC-G
12R/30L - 11000x150 - CONC-G
Active PE Departure:
30L - 30R
Current PE ATIS:
R
Altimeter:
30.05
Remarks:
V F R DEPARTURES CONTACT CLEARANCE DELIVERY, ADVISE ON COURSE HEADING, ALTITUDE, AND IF FLIGHT FOLLOWING IS REQUESTED.
ATIS:
126.95 408-980-8459
Clearance Delivery:
118
Ground:
121.7
Tower:
SAN JOSE TOWER 124.0
DESTINATION
,
Elevation:
TPA:
1000 (est.)


6891.1 NM69° True-15° Var54° HDG

Flight Plan:
(click to file on line)

1. Type
2. Aircraft Identification
3. Aircraft Type / Special Equipment
4. True Airspeed
kts
5. Departure Airport
(ICAO code)
6. Arriving Airport
(ICAO code)
7. Cruising Altitude
ft
8. Alternate Airport
(ICAO code)
9. Route of Flight
10. Remarks


00:00:00 Departure ATIS: Destination ATIS:

Clearance Limit:
Route:
Altitude: Expect in minutes
Frequency:
Transponder: (7500 Hijack / 7600 Lost Comms / 7700 Emergency)


KSJC 100453Z 15004KT 10SM FEW024 BKN035 BKN047 13/08 A3005 RMK AO2 RAB08E19 SLP174 P0000 T01280083
Time: 2022-12-10T04:53:00Z
1670648828
Winds: 150 @ 4 kts
Visibility: 10.0 sm
Clouds (AGL): FEW 2400
BKN 3500
BKN 4700
Temperature: 12.8 C
Dew Point: 8.3 C
Pressure: 30.050198 in Hgbr


Notes:

Data extracted from FAA Digital Chart Supplement. Effective: 0901Z Thursday, 27 JAN 2022 to 0900z Thursday, 24 MAR 2022
Current ATIS data is provided courtisy of PilotEdge.